| time (UTC) | temp F | wind direction | speed knots | gust knots | rain 1hr in | rain 24hr in | rain mn in | humidity % | barometer mb |
| 20260904213328 | 93 | 220 | 3.5 | 8.7 | 0.00 | 0.00 | 0.00 | 64 | 1008.8 |
| 20260904213053 | 93 | 235 | 3.5 | 7.0 | 0.00 | 0.00 | 0.00 | 64 | 1009.0 |
| 20260904212325 | 93 | 196 | 3.5 | 7.8 | 0.00 | 0.00 | 0.00 | 64 | 1009.0 |
| 20260904211825 | 92 | 214 | 3.5 | 9.6 | 0.00 | 0.00 | 0.00 | 65 | 1009.0 |
| 20260904211326 | 93 | 254 | 2.6 | 9.6 | 0.00 | 0.00 | 0.00 | 64 | 1009.2 |
| 20260904210824 | 92 | 138 | 3.5 | 9.6 | 0.00 | 0.00 | 0.00 | 65 | 1009.2 |
| 20260904210806 | 92 | 199 | 3.5 | 9.6 | 0.00 | 0.00 | 0.00 | 65 | 1009.2 |
| 20260904205825 | 92 | 196 | 3.5 | 8.7 | 0.00 | 0.00 | 0.00 | 65 | 1009.5 |
| 20260904205324 | 92 | 229 | 3.5 | 8.7 | 0.00 | 0.00 | 0.00 | 65 | 1009.5 |
| 20260904204824 | 92 | 218 | 3.5 | 8.7 | 0.00 | 0.00 | 0.00 | 65 | 1009.5 |
| 20260904204322 | 92 | 217 | 3.5 | 10.4 | 0.00 | 0.00 | 0.00 | 65 | 1009.5 |
| 20260904203821 | 92 | 219 | 3.5 | 10.4 | 0.00 | 0.00 | 0.00 | 65 | 1009.5 |
| 20260904203316 | 92 | 192 | 3.5 | 8.7 | 0.00 | 0.00 | 0.00 | 65 | 1009.5 |
| 20260904202810 | 92 | 209 | 3.5 | 8.7 | 0.00 | 0.00 | 0.00 | 66 | 1009.7 |
| 20260904202306 | 92 | 182 | 3.5 | 6.1 | 0.00 | 0.00 | 0.00 | 65 | 1009.7 |
| 20260904201755 | 92 | 186 | 2.6 | 6.1 | 0.00 | 0.00 | 0.00 | 66 | 1009.7 |
| 20260904201250 | 92 | 188 | 2.6 | 7.8 | 0.00 | 0.00 | 0.00 | 66 | 1009.8 |
| 20260904201226 | 92 | 234 | 1.7 | 7.8 | 0.00 | 0.00 | 0.00 | 65 | 1009.8 |
| 20260904200507 | 92 | 227 | 2.6 | 8.7 | 0.00 | 0.00 | 0.00 | 66 | 1009.8 |
| 20260904195733 | 92 | 152 | 1.7 | 8.7 | 0.00 | 0.00 | 0.00 | 66 | 1010.0 |
| 20260904195222 | 92 | 217 | 1.7 | 7.8 | 0.00 | 0.00 | 0.00 | 65 | 1010.0 |
| 20260904194720 | 92 | 181 | 0.9 | 7.8 | 0.00 | 0.00 | 0.00 | 65 | 1010.0 |
| 20260904194216 | 92 | 246 | 0.9 | 7.0 | 0.00 | 0.00 | 0.00 | 65 | 1010.3 |
| 20260904193710 | 92 | 233 | 0.9 | 5.2 | 0.00 | 0.00 | 0.00 | 65 | 1010.3 |
| 20260904193203 | 91 | 146 | 0.0 | 2.6 | 0.00 | 0.00 | 0.00 | 65 | 1010.3 |
| 20260904192652 | 91 | 172 | 0.9 | 6.1 | 0.00 | 0.00 | 0.00 | 66 | 1010.5 |
| 20260904192417 | 90 | 155 | 1.7 | 7.0 | 0.00 | 0.00 | 0.00 | 66 | 1010.5 |
| 20260904191645 | 90 | 111 | 1.7 | 7.0 | 0.00 | 0.00 | 0.00 | 65 | 1010.5 |
| 20260904191138 | 90 | 165 | 1.7 | 7.0 | 0.00 | 0.00 | 0.00 | 68 | 1010.8 |
| 20260904190632 | 89 | 109 | 0.9 | 7.0 | 0.00 | 0.00 | 0.00 | 68 | 1010.8 |
| 20260904190126 | 89 | 204 | 2.6 | 7.8 | 0.00 | 0.00 | 0.00 | 69 | 1010.8 |
| 20260904185620 | 89 | 92 | 1.7 | 7.8 | 0.00 | 0.00 | 0.00 | 68 | 1011.0 |
| 20260904185331 | 88 | 162 | 0.9 | 5.2 | 0.00 | 0.00 | 0.00 | 70 | 1011.0 |
| 20260904184609 | 88 | 116 | 1.7 | 8.7 | 0.00 | 0.00 | 0.00 | 70 | 1011.0 |
| 20260904184104 | 87 | 90 | 3.5 | 9.6 | 0.00 | 0.00 | 0.00 | 70 | 1011.4 |
| 20260904183557 | 87 | 106 | 3.5 | 9.6 | 0.00 | 0.00 | 0.00 | 71 | 1011.4 |
| 20260904183051 | 86 | 106 | 3.5 | 7.8 | 0.00 | 0.00 | 0.00 | 73 | 1011.4 |
| 20260904182541 | 86 | 92 | 3.5 | 9.6 | 0.00 | 0.00 | 0.00 | 72 | 1011.6 |
| 20260904182039 | 86 | 342 | 3.5 | 9.6 | 0.00 | 0.00 | 0.00 | 72 | 1011.6 |
| 20260904181757 | 86 | 77 | 3.5 | 10.4 | 0.00 | 0.00 | 0.00 | 75 | 1011.6 |
| 20260904181026 | 86 | 136 | 4.3 | 10.4 | 0.00 | 0.00 | 0.00 | 73 | 1011.9 |
| 20260904180519 | 86 | 86 | 4.3 | 8.7 | 0.00 | 0.00 | 0.00 | 74 | 1011.9 |
| 20260904180500 | 85 | 150 | 3.5 | 8.7 | 0.00 | 0.00 | 0.00 | 74 | 1011.9 |
| 20260904175510 | 85 | 97 | 2.6 | 8.7 | 0.00 | 0.00 | 0.00 | 76 | 1012.4 |
| 20260904174958 | 84 | 141 | 3.5 | 10.4 | 0.00 | 0.00 | 0.00 | 78 | 1012.4 |
| 20260904174455 | 84 | 79 | 5.2 | 11.3 | 0.00 | 0.00 | 0.00 | 78 | 1012.4 |
| 20260904173950 | 84 | 80 | 5.2 | 11.3 | 0.00 | 0.00 | 0.00 | 77 | 1012.4 |
| 20260904173444 | 84 | 52 | 5.2 | 11.3 | 0.00 | 0.00 | 0.00 | 78 | 1012.4 |
| 20260904172939 | 84 | 333 | 5.2 | 13.0 | 0.00 | 0.00 | 0.00 | 77 | 1012.4 |
| 20260904172429 | 85 | 22 | 6.1 | 13.0 | 0.00 | 0.00 | 0.00 | 76 | 1012.4 |
| 20260904172150 | 85 | 67 | 6.1 | 13.0 | 0.00 | 0.00 | 0.00 | 75 | 1012.4 |
| 20260904171409 | 85 | 15 | 5.2 | 13.9 | 0.00 | 0.00 | 0.00 | 74 | 1012.7 |
| 20260904170904 | 85 | 39 | 5.2 | 13.9 | 0.00 | 0.00 | 0.00 | 74 | 1012.7 |
| 20260904170405 | 85 | 32 | 6.1 | 13.0 | 0.00 | 0.00 | 0.00 | 74 | 1012.7 |
| 20260904165904 | 86 | 91 | 5.2 | 12.2 | 0.00 | 0.00 | 0.00 | 73 | 1012.5 |
| 20260904165401 | 86 | 63 | 5.2 | 11.3 | 0.00 | 0.00 | 0.00 | 75 | 1012.5 |
| 20260904165344 | 86 | 22 | 6.1 | 12.2 | 0.00 | 0.00 | 0.00 | 74 | 1012.5 |
| 20260904164401 | 86 | 67 | 5.2 | 12.2 | 0.00 | 0.00 | 0.00 | 73 | 1012.4 |
| 20260904163903 | 86 | 82 | 5.2 | 10.4 | 0.00 | 0.00 | 0.00 | 73 | 1012.4 |
| 20260904163404 | 86 | 55 | 5.2 | 11.3 | 0.00 | 0.00 | 0.00 | 73 | 1012.4 |
| 20260904163123 | 87 | 43 | 4.3 | 11.3 | 0.00 | 0.00 | 0.00 | 73 | 1012.2 |
| 20260904162400 | 87 | 35 | 3.5 | 8.7 | 0.00 | 0.00 | 0.00 | 72 | 1012.2 |
| 20260904161856 | 87 | 24 | 4.3 | 13.9 | 0.00 | 0.00 | 0.00 | 73 | 1012.2 |
| 20260904161348 | 87 | 31 | 4.3 | 13.9 | 0.00 | 0.00 | 0.00 | 71 | 1011.9 |
| 20260904160842 | 88 | 41 | 1.7 | 8.7 | 0.00 | 0.00 | 0.00 | 68 | 1011.9 |
| 20260904160336 | 88 | 65 | 1.7 | 5.2 | 0.00 | 0.00 | 0.00 | 67 | 1011.9 |
| 20260904155831 | 88 | 349 | 1.7 | 6.1 | 0.00 | 0.00 | 0.00 | 67 | 1011.9 |
| 20260904155542 | 88 | 311 | 1.7 | 6.1 | 0.00 | 0.00 | 0.00 | 68 | 1011.9 |
| 20260904154820 | 87 | 88 | 1.7 | 7.8 | 0.00 | 0.00 | 0.00 | 70 | 1011.9 |
| 20260904154312 | 87 | 54 | 2.6 | 7.8 | 0.00 | 0.00 | 0.00 | 70 | 1011.7 |
| 20260904154026 | 87 | 51 | 2.6 | 7.8 | 0.00 | 0.00 | 0.00 | 70 | 1011.7 |
| 20260904153301 | 87 | 9 | 2.6 | 7.0 | 0.00 | 0.00 | 0.00 | 71 | 1011.7 |
| 20260904152756 | 87 | 350 | 2.6 | 7.0 | 0.00 | 0.00 | 0.00 | 70 | 1011.5 |
| 20260904152249 | 87 | 46 | 1.7 | 5.2 | 0.00 | 0.00 | 0.00 | 70 | 1011.5 |
| 20260904151739 | 86 | 23 | 2.6 | 6.1 | 0.00 | 0.00 | 0.00 | 71 | 1011.5 |
| 20260904151453 | 86 | 342 | 1.7 | 6.1 | 0.00 | 0.00 | 0.00 | 71 | 1011.4 |
| 20260904150730 | 86 | 348 | 1.7 | 4.3 | 0.00 | 0.00 | 0.00 | 71 | 1011.4 |
| 20260904150226 | 86 | 316 | 0.9 | 4.3 | 0.00 | 0.00 | 0.00 | 72 | 1011.4 |
| 20260904145719 | 86 | 32 | 0.9 | 3.5 | 0.00 | 0.00 | 0.00 | 72 | 1011.5 |
| 20260904145206 | 85 | 301 | 1.7 | 5.2 | 0.00 | 0.00 | 0.00 | 73 | 1011.5 |
| 20260904144925 | 85 | 342 | 2.6 | 7.8 | 0.00 | 0.00 | 0.00 | 73 | 1011.5 |
| 20260904144201 | 85 | 5 | 2.6 | 7.8 | 0.00 | 0.00 | 0.00 | 74 | 1011.3 |
| 20260904143655 | 84 | 325 | 1.7 | 5.2 | 0.00 | 0.00 | 0.00 | 74 | 1011.3 |
| 20260904143155 | 83 | 250 | 2.6 | 6.1 | 0.00 | 0.00 | 0.00 | 75 | 1011.3 |
| 20260904142914 | 83 | 242 | 3.5 | 9.6 | 0.00 | 0.00 | 0.00 | 75 | 1011.2 |
| 20260904142150 | 83 | 265 | 3.5 | 9.6 | 0.00 | 0.00 | 0.00 | 75 | 1011.2 |
| 20260904141649 | 83 | 217 | 2.6 | 6.1 | 0.00 | 0.00 | 0.00 | 75 | 1011.2 |
| 20260904141149 | 83 | 287 | 1.7 | 6.1 | 0.00 | 0.00 | 0.00 | 75 | 1011.2 |
| 20260904140649 | 82 | 237 | 1.7 | 4.3 | 0.00 | 0.00 | 0.00 | 77 | 1011.2 |
| 20260904140413 | 82 | 229 | 1.7 | 4.3 | 0.00 | 0.00 | 0.00 | 77 | 1011.2 |
| 20260904135646 | 81 | 229 | 1.7 | 4.3 | 0.00 | 0.00 | 0.00 | 78 | 1011.2 |
| 20260904135144 | 81 | 248 | 1.7 | 4.3 | 0.00 | 0.00 | 0.00 | 79 | 1011.2 |
| 20260904134905 | 80 | 227 | 1.7 | 3.5 | 0.00 | 0.00 | 0.00 | 81 | 1011.2 |
| 20260904134409 | 80 | 221 | 0.9 | 3.5 | 0.00 | 0.00 | 0.00 | 80 | 1011.3 |
| 20260904133645 | 80 | 223 | 0.9 | 3.5 | 0.00 | 0.00 | 0.00 | 81 | 1011.3 |
| 20260904133144 | 79 | 213 | 0.0 | 2.6 | 0.00 | 0.00 | 0.00 | 81 | 1011.3 |
| 20260904132645 | 79 | 140 | 0.0 | 0.9 | 0.00 | 0.00 | 0.00 | 83 | 1011.3 |
| 20260904132145 | 78 | 140 | 0.0 | 0.9 | 0.00 | 0.00 | 0.00 | 83 | 1011.3 |
| 20260904131643 | 78 | 139 | 0.0 | 0.0 | 0.00 | 0.00 | 0.00 | 84 | 1011.3 |
| 20260904131144 | 78 | 177 | 0.0 | 0.0 | 0.00 | 0.00 | 0.00 | 84 | 1010.9 |
| 20260904130637 | 77 | 180 | 0.0 | 0.0 | 0.00 | 0.00 | 0.00 | 85 | 1010.9 |
| 20260904130127 | 77 | 219 | 0.0 | 2.6 | 0.00 | 0.00 | 0.00 | 85 | 1010.9 |
| 20260904125627 | 77 | 221 | 0.9 | 3.5 | 0.00 | 0.00 | 0.00 | 85 | 1010.5 |
| 20260904125128 | 77 | 221 | 0.9 | 3.5 | 0.00 | 0.00 | 0.00 | 86 | 1010.5 |
| 20260904124626 | 76 | 212 | 1.7 | 3.5 | 0.00 | 0.00 | 0.00 | 86 | 1010.5 |
| 20260904124126 | 76 | 227 | 1.7 | 4.3 | 0.00 | 0.00 | 0.00 | 86 | 1010.2 |
| 20260904123631 | 76 | 223 | 1.7 | 4.3 | 0.00 | 0.00 | 0.00 | 87 | 1010.2 |
| 20260904123127 | 76 | 229 | 1.7 | 4.3 | 0.00 | 0.00 | 0.00 | 87 | 1010.2 |
| 20260904122626 | 75 | 230 | 0.9 | 2.6 | 0.00 | 0.00 | 0.00 | 87 | 1010.0 |
| 20260904122127 | 75 | 213 | 0.0 | 1.7 | 0.00 | 0.00 | 0.00 | 88 | 1010.0 |
| 20260904121621 | 75 | 212 | 0.0 | 1.7 | 0.00 | 0.00 | 0.00 | 88 | 1010.0 |
| 20260904121116 | 75 | 213 | 0.0 | 1.7 | 0.00 | 0.00 | 0.00 | 88 | 1009.8 |
| 20260904120609 | 75 | 213 | 0.0 | 1.7 | 0.00 | 0.00 | 0.00 | 88 | 1009.8 |
| 20260904120104 | 75 | 215 | 0.0 | 0.9 | 0.00 | 0.00 | 0.00 | 88 | 1009.8 |
| 20260904115553 | 75 | 215 | 0.0 | 1.7 | 0.00 | 0.00 | 0.00 | 88 | 1009.7 |
| 20260904115317 | 75 | 215 | 0.9 | 1.7 | 0.00 | 0.00 | 0.00 | 88 | 1009.7 |
| 20260904114545 | 75 | 193 | 0.0 | 1.7 | 0.00 | 0.00 | 0.00 | 87 | 1009.7 |
| 20260904114040 | 75 | 180 | 0.0 | 1.7 | 0.00 | 0.00 | 0.00 | 87 | 1009.6 |
| 20260904113533 | 75 | 219 | 0.9 | 1.7 | 0.00 | 0.00 | 0.00 | 87 | 1009.6 |
| 20260904113026 | 75 | 219 | 0.9 | 3.5 | 0.00 | 0.00 | 0.00 | 87 | 1009.6 |
| 20260904113008 | 75 | 211 | 1.7 | 5.2 | 0.00 | 0.00 | 0.00 | 87 | 1009.2 |
| 20260904112011 | 75 | 214 | 2.6 | 5.2 | 0.00 | 0.00 | 0.00 | 87 | 1009.2 |
| 20260904111509 | 75 | 220 | 2.6 | 5.2 | 0.00 | 0.00 | 0.00 | 87 | 1009.2 |
| 20260904111004 | 75 | 215 | 2.6 | 6.1 | 0.00 | 0.00 | 0.00 | 87 | 1009.2 |
| 20260904110458 | 75 | 218 | 3.5 | 6.1 | 0.00 | 0.00 | 0.00 | 87 | 1009.2 |
| 20260904105951 | 75 | 235 | 3.5 | 7.0 | 0.00 | 0.00 | 0.00 | 87 | 1009.2 |
| 20260904105441 | 75 | 208 | 3.5 | 7.0 | 0.00 | 0.00 | 0.00 | 87 | 1009.2 |
| 20260904104938 | 75 | 191 | 3.5 | 7.0 | 0.00 | 0.00 | 0.00 | 87 | 1009.2 |
| 20260904104433 | 75 | 239 | 3.5 | 7.0 | 0.00 | 0.00 | 0.00 | 87 | 1009.2 |
| 20260904103926 | 75 | 247 | 3.5 | 7.0 | 0.00 | 0.00 | 0.00 | 87 | 1009.2 |
| 20260904103421 | 75 | 229 | 3.5 | 7.0 | 0.00 | 0.00 | 0.00 | 87 | 1009.2 |
| 20260904102910 | 75 | 201 | 3.5 | 7.0 | 0.00 | 0.00 | 0.00 | 88 | 1009.5 |
| 20260904102409 | 75 | 200 | 2.6 | 7.0 | 0.00 | 0.00 | 0.00 | 88 | 1009.5 |
| 20260904101902 | 75 | 210 | 2.6 | 7.0 | 0.00 | 0.00 | 0.00 | 88 | 1009.5 |
| 20260904101840 | 76 | 225 | 1.7 | 5.2 | 0.00 | 0.00 | 0.00 | 88 | 1009.7 |
| 20260904101113 | 76 | 213 | 1.7 | 5.2 | 0.00 | 0.00 | 0.00 | 87 | 1009.7 |
| 20260904100610 | 76 | 209 | 1.7 | 4.3 | 0.00 | 0.00 | 0.00 | 87 | 1009.7 |
| 20260904095550 | 76 | 234 | 1.7 | 3.5 | 0.00 | 0.00 | 0.00 | 87 | 1009.7 |
| 20260904094826 | 76 | 194 | 0.9 | 3.5 | 0.00 | 0.00 | 0.00 | 87 | 1009.7 |
| 20260904094320 | 76 | 215 | 1.7 | 3.5 | 0.00 | 0.00 | 0.00 | 87 | 1009.8 |
| 20260904093814 | 76 | 217 | 0.9 | 2.6 | 0.00 | 0.00 | 0.00 | 87 | 1009.8 |
| 20260904093309 | 76 | 209 | 0.9 | 2.6 | 0.00 | 0.00 | 0.00 | 87 | 1009.8 |
| 20260904092858 | 76 | 209 | 0.0 | 1.7 | 0.00 | 0.00 | 0.00 | 86 | 1010.1 |
| 20260904091803 | 76 | 217 | 0.9 | 2.6 | 0.00 | 0.00 | 0.00 | 87 | 1010.1 |
| 20260904091304 | 76 | 200 | 0.9 | 3.5 | 0.00 | 0.00 | 0.00 | 86 | 1010.1 |
| 20260904091023 | 76 | 196 | 1.7 | 3.5 | 0.00 | 0.00 | 0.00 | 86 | 1010.1 |
| 20260904090303 | 76 | 201 | 1.7 | 3.5 | 0.00 | 0.00 | 0.00 | 86 | 1010.1 |
| 20260904085801 | 77 | 219 | 1.7 | 3.5 | 0.00 | 0.00 | 0.00 | 86 | 1010.1 |
| 20260904085530 | 77 | 230 | 1.7 | 3.5 | 0.00 | 0.00 | 0.00 | 86 | 1010.1 |
| 20260904084800 | 77 | 227 | 1.7 | 3.5 | 0.00 | 0.00 | 0.00 | 86 | 1010.1 |
| 20260904084259 | 77 | 225 | 0.9 | 3.5 | 0.00 | 0.00 | 0.00 | 86 | 1009.8 |
| 20260904084022 | 77 | 216 | 0.9 | 3.5 | 0.00 | 0.00 | 0.00 | 86 | 1009.8 |
| 20260904083302 | 77 | 223 | 0.9 | 3.5 | 0.00 | 0.00 | 0.00 | 86 | 1009.8 |
| 20260904082758 | 77 | 232 | 0.9 | 4.3 | 0.00 | 0.00 | 0.00 | 86 | 1009.5 |
| 20260904082244 | 77 | 221 | 1.7 | 4.3 | 0.00 | 0.00 | 0.00 | 86 | 1009.5 |
| 20260904081951 | 77 | 219 | 1.7 | 5.2 | 0.00 | 0.00 | 0.00 | 86 | 1009.5 |
| 20260904081221 | 77 | 217 | 2.6 | 5.2 | 0.00 | 0.00 | 0.00 | 86 | 1009.3 |
| 20260904081154 | 77 | 225 | 1.7 | 5.2 | 0.00 | 0.00 | 0.00 | 86 | 1009.3 |
| 20260904080158 | 77 | 234 | 1.7 | 5.2 | 0.00 | 0.00 | 0.00 | 86 | 1009.3 |
| 20260904075644 | 77 | 154 | 1.7 | 4.3 | 0.00 | 0.00 | 0.00 | 86 | 1009.2 |
| 20260904075401 | 77 | 217 | 1.7 | 4.3 | 0.00 | 0.00 | 0.00 | 86 | 1009.2 |
| 20260904074636 | 78 | 210 | 2.6 | 4.3 | 0.00 | 0.00 | 0.00 | 86 | 1009.2 |
| 20260904074131 | 78 | 174 | 2.6 | 7.0 | 0.00 | 0.00 | 0.00 | 86 | 1009.3 |
| 20260904073621 | 78 | 227 | 2.6 | 5.2 | 0.00 | 0.00 | 0.00 | 86 | 1009.3 |
| 20260904073338 | 78 | 231 | 2.6 | 5.2 | 0.00 | 0.00 | 0.00 | 86 | 1009.3 |
| 20260904072612 | 78 | 214 | 2.6 | 5.2 | 0.00 | 0.00 | 0.00 | 86 | 1009.4 |
| 20260904072106 | 78 | 218 | 2.6 | 5.2 | 0.00 | 0.00 | 0.00 | 86 | 1009.4 |
| 20260904071828 | 79 | 220 | 2.6 | 5.2 | 0.00 | 0.00 | 0.00 | 85 | 1009.4 |
| 20260904071055 | 79 | 205 | 1.7 | 4.3 | 0.00 | 0.00 | 0.00 | 85 | 1009.7 |
| 20260904070545 | 79 | 213 | 2.6 | 4.3 | 0.00 | 0.00 | 0.00 | 85 | 1009.7 |
| 20260904070039 | 79 | 238 | 2.6 | 5.2 | 0.00 | 0.00 | 0.00 | 85 | 1009.7 |
| 20260904065528 | 79 | 211 | 2.6 | 5.2 | 0.00 | 0.00 | 0.00 | 84 | 1009.9 |
| 20260904065026 | 80 | 231 | 2.6 | 6.1 | 0.00 | 0.00 | 0.00 | 84 | 1009.9 |
| 20260904064519 | 80 | 234 | 1.7 | 6.1 | 0.00 | 0.00 | 0.00 | 84 | 1009.9 |
| 20260904064014 | 80 | 182 | 2.6 | 4.3 | 0.00 | 0.00 | 0.00 | 84 | 1010.2 |
| 20260904063509 | 80 | 238 | 2.6 | 4.3 | 0.00 | 0.00 | 0.00 | 84 | 1010.2 |
| 20260904062957 | 80 | 168 | 1.7 | 6.1 | 0.00 | 0.00 | 0.00 | 84 | 1010.2 |
| 20260904062457 | 80 | 150 | 1.7 | 6.1 | 0.00 | 0.00 | 0.00 | 84 | 1010.3 |
| 20260904062211 | 80 | 160 | 0.9 | 3.5 | 0.00 | 0.00 | 0.00 | 84 | 1010.3 |
| 20260904061705 | 80 | 177 | 0.0 | 3.5 | 0.00 | 0.00 | 0.00 | 84 | 1010.3 |
| 20260904060937 | 80 | 184 | 0.9 | 4.3 | 0.00 | 0.00 | 0.00 | 84 | 1010.3 |
| 20260904060427 | 80 | 190 | 0.9 | 4.3 | 0.00 | 0.00 | 0.00 | 84 | 1010.3 |
| 20260904055927 | 80 | 198 | 0.9 | 2.6 | 0.00 | 0.00 | 0.00 | 84 | 1010.5 |
| 20260904055420 | 80 | 197 | 0.9 | 3.5 | 0.00 | 0.00 | 0.00 | 84 | 1010.5 |
| 20260904054914 | 80 | 196 | 0.9 | 3.5 | 0.00 | 0.00 | 0.00 | 84 | 1010.5 |
| 20260904054408 | 80 | 202 | 0.0 | 0.0 | 0.00 | 0.00 | 0.00 | 84 | 1010.3 |
| 20260904053901 | 80 | 192 | 0.0 | 0.0 | 0.00 | 0.00 | 0.00 | 84 | 1010.3 |
| 20260904053358 | 80 | 191 | 0.0 | 0.0 | 0.00 | 0.00 | 0.00 | 84 | 1010.3 |
| 20260904052857 | 80 | 190 | 0.0 | 3.5 | 0.00 | 0.00 | 0.00 | 84 | 1010.2 |
| 20260904052354 | 80 | 189 | 0.9 | 3.5 | 0.00 | 0.00 | 0.00 | 84 | 1010.2 |
| 20260904051853 | 80 | 181 | 0.9 | 2.6 | 0.00 | 0.00 | 0.00 | 84 | 1010.2 |
| 20260904051350 | 80 | 198 | 0.9 | 2.6 | 0.00 | 0.00 | 0.00 | 84 | 1010.3 |
| 20260904050849 | 80 | 192 | 0.9 | 2.6 | 0.00 | 0.00 | 0.00 | 84 | 1010.3 |
| 20260904050607 | 80 | 253 | 0.0 | 3.5 | 0.00 | 0.00 | 0.00 | 85 | 1010.3 |
| 20260904045846 | 80 | 146 | 0.0 | 3.5 | 0.00 | 0.00 | 0.00 | 85 | 1010.3 |
| 20260904045345 | 80 | 171 | 0.0 | 2.6 | 0.00 | 0.00 | 0.00 | 85 | 1010.3 |
| 20260904044843 | 80 | 172 | 0.0 | 2.6 | 0.00 | 0.00 | 0.00 | 85 | 1010.3 |
| 20260904044342 | 80 | 195 | 0.0 | 0.0 | 0.00 | 0.00 | 0.00 | 84 | 1010.4 |
| 20260904044101 | 80 | 173 | 0.0 | 0.0 | 0.00 | 0.00 | 0.00 | 84 | 1010.4 |
| 20260904043337 | 80 | 171 | 0.0 | 0.0 | 0.00 | 0.00 | 0.00 | 84 | 1010.4 |
| 20260904043101 | 80 | 148 | 0.0 | 0.0 | 0.00 | 0.00 | 0.00 | 84 | 1010.4 |
| 20260904042554 | 80 | 155 | 0.0 | 0.0 | 0.00 | 0.00 | 0.00 | 84 | 1010.4 |
| 20260904042311 | 80 | 129 | 0.0 | 0.0 | 0.00 | 0.00 | 0.00 | 84 | 1010.4 |
| 20260904041331 | 81 | 128 | 0.0 | 0.0 | 0.00 | 0.00 | 0.00 | 83 | 1010.4 |
| 20260904040832 | 81 | 128 | 0.0 | 0.0 | 0.00 | 0.00 | 0.00 | 83 | 1010.4 |
| 20260904040551 | 81 | 146 | 0.0 | 0.0 | 0.00 | 0.00 | 0.00 | 83 | 1010.4 |
| 20260904040055 | 81 | 142 | 0.0 | 0.0 | 0.00 | 0.00 | 0.00 | 82 | 1010.5 |
| 20260904035828 | 81 | 146 | 0.0 | 0.0 | 0.00 | 0.00 | 0.00 | 82 | 1010.5 |
| 20260904034831 | 81 | 148 | 0.0 | 0.0 | 0.00 | 0.00 | 0.00 | 82 | 1010.5 |
| 20260904034329 | 81 | 175 | 0.0 | 0.0 | 0.00 | 0.00 | 0.00 | 82 | 1010.5 |
| 20260904033832 | 81 | 175 | 0.0 | 0.0 | 0.00 | 0.00 | 0.00 | 82 | 1010.5 |
| 20260904033813 | 82 | 175 | 0.0 | 0.0 | 0.00 | 0.00 | 0.00 | 81 | 1010.5 |
| 20260904032812 | 82 | 175 | 0.0 | 0.0 | 0.00 | 0.00 | 0.00 | 81 | 1010.7 |
| 20260904032313 | 82 | 186 | 0.0 | 0.0 | 0.00 | 0.00 | 0.00 | 81 | 1010.7 |
| 20260904031813 | 82 | 178 | 0.0 | 0.0 | 0.00 | 0.00 | 0.00 | 81 | 1010.7 |
| 20260904031314 | 82 | 176 | 0.0 | 0.0 | 0.00 | 0.00 | 0.00 | 81 | 1010.7 |
| 20260904030812 | 82 | 188 | 0.0 | 0.0 | 0.00 | 0.00 | 0.00 | 81 | 1010.7 |
| 20260904030534 | 82 | 194 | 0.0 | 0.0 | 0.00 | 0.00 | 0.00 | 81 | 1010.7 |
| 20260904025813 | 82 | 153 | 0.0 | 0.0 | 0.00 | 0.00 | 0.00 | 82 | 1010.8 |
| 20260904025315 | 82 | 153 | 0.0 | 0.0 | 0.00 | 0.00 | 0.00 | 82 | 1010.8 |
| 20260904024815 | 82 | 130 | 0.0 | 0.0 | 0.00 | 0.00 | 0.00 | 82 | 1010.8 |
| 20260904024308 | 82 | 130 | 0.0 | 0.0 | 0.00 | 0.00 | 0.00 | 82 | 1010.4 |
| 20260904024248 | 82 | 128 | 0.0 | 0.0 | 0.00 | 0.00 | 0.00 | 82 | 1010.4 |
| 20260904023257 | 83 | 128 | 0.0 | 0.0 | 0.00 | 0.00 | 0.00 | 82 | 1010.4 |
| 20260904022747 | 83 | 128 | 0.0 | 0.0 | 0.00 | 0.00 | 0.00 | 82 | 1010.3 |
| 20260904022722 | 83 | 127 | 0.0 | 0.0 | 0.00 | 0.00 | 0.00 | 82 | 1010.3 |
| 20260904021739 | 83 | 122 | 0.0 | 0.0 | 0.00 | 0.00 | 0.00 | 82 | 1010.3 |
| 20260904021235 | 83 | 122 | 0.0 | 0.0 | 0.00 | 0.00 | 0.00 | 81 | 1010.2 |
| 20260904020729 | 83 | 122 | 0.0 | 0.0 | 0.00 | 0.00 | 0.00 | 81 | 1010.2 |
| 20260904020223 | 83 | 121 | 0.0 | 0.9 | 0.00 | 0.00 | 0.00 | 81 | 1010.2 |
| 20260904015937 | 84 | 118 | 0.0 | 0.9 | 0.00 | 0.00 | 0.00 | 81 | 1009.8 |
| 20260904015211 | 84 | 170 | 0.0 | 0.0 | 0.00 | 0.00 | 0.00 | 81 | 1009.8 |
| 20260904014657 | 84 | 142 | 0.0 | 0.0 | 0.00 | 0.00 | 0.00 | 80 | 1009.8 |
| 20260904014158 | 84 | 135 | 0.0 | 2.6 | 0.00 | 0.00 | 0.00 | 80 | 1009.5 |
| 20260904013648 | 84 | 175 | 0.9 | 2.6 | 0.00 | 0.00 | 0.00 | 80 | 1009.5 |
| 20260904013403 | 84 | 158 | 1.7 | 3.5 | 0.00 | 0.00 | 0.00 | 80 | 1009.5 |
| 20260904012641 | 84 | 149 | 1.7 | 3.5 | 0.00 | 0.00 | 0.00 | 80 | 1009.4 |
| 20260904012125 | 84 | 121 | 1.7 | 6.1 | 0.00 | 0.00 | 0.00 | 80 | 1009.4 |
| 20260904011847 | 84 | 98 | 1.7 | 6.1 | 0.00 | 0.00 | 0.00 | 80 | 1009.4 |
| 20260904011344 | 85 | 117 | 0.9 | 3.5 | 0.00 | 0.00 | 0.00 | 81 | 1009.2 |
| 20260904010616 | 85 | 134 | 0.9 | 4.3 | 0.00 | 0.00 | 0.00 | 81 | 1009.2 |
| 20260904010328 | 85 | 178 | 1.7 | 4.3 | 0.00 | 0.00 | 0.00 | 80 | 1009.2 |
| 20260904005559 | 85 | 121 | 1.7 | 3.5 | 0.00 | 0.00 | 0.00 | 80 | 1009.2 |
| 20260904005058 | 85 | 119 | 1.7 | 6.1 | 0.00 | 0.00 | 0.00 | 80 | 1009.2 |
| 20260904005028 | 85 | 108 | 1.7 | 6.1 | 0.00 | 0.00 | 0.00 | 80 | 1009.2 |
| 20260904004044 | 86 | 94 | 0.9 | 4.3 | 0.00 | 0.00 | 0.00 | 79 | 1009.2 |
| 20260904003540 | 86 | 100 | 0.9 | 5.2 | 0.00 | 0.00 | 0.00 | 79 | 1009.2 |
| 20260904003030 | 86 | 119 | 0.0 | 5.2 | 0.00 | 0.00 | 0.00 | 78 | 1009.2 |
| 20260904002527 | 87 | 115 | 0.0 | 0.9 | 0.00 | 0.00 | 0.00 | 78 | 1009.2 |
| 20260904002021 | 87 | 119 | 0.0 | 0.0 | 0.00 | 0.00 | 0.00 | 77 | 1009.2 |
| 20260904001515 | 87 | 115 | 0.0 | 0.0 | 0.00 | 0.00 | 0.00 | 77 | 1009.2 |
| 20260904001011 | 88 | 126 | 0.0 | 0.0 | 0.00 | 0.00 | 0.00 | 76 | 1009.2 |
| 20260904000502 | 88 | 123 | 0.0 | 0.9 | 0.00 | 0.00 | 0.00 | 76 | 1009.2 |
| 20260903235957 | 88 | 120 | 0.0 | 0.9 | 0.00 | 0.00 | 0.00 | 75 | 1009.2 |
| 20260903235935 | 89 | 110 | 0.0 | 0.0 | 0.00 | 0.00 | 0.00 | 74 | 1009.2 |
| 20260903234951 | 89 | 106 | 0.0 | 0.0 | 0.00 | 0.00 | 0.00 | 74 | 1009.2 |
| 20260903234449 | 89 | 144 | 0.0 | 0.0 | 0.00 | 0.00 | 0.00 | 73 | 1009.2 |
| 20260903234216 | 89 | 149 | 0.0 | 0.0 | 0.00 | 0.00 | 0.00 | 73 | 1009.2 |
| 20260903233704 | 90 | 163 | 0.0 | 0.9 | 0.00 | 0.00 | 0.00 | 72 | 1009.2 |
| 20260903232945 | 90 | 166 | 0.0 | 1.7 | 0.00 | 0.00 | 0.00 | 72 | 1009.2 |
| 20260903232713 | 90 | 103 | 0.0 | 1.7 | 0.00 | 0.00 | 0.00 | 71 | 1009.2 |
| 20260903231943 | 90 | 172 | 0.0 | 0.9 | 0.00 | 0.00 | 0.00 | 72 | 1009.2 |
| 20260903231709 | 90 | 211 | 0.0 | 0.9 | 0.00 | 0.00 | 0.00 | 71 | 1009.5 |
| 20260903230944 | 90 | 189 | 0.0 | 0.9 | 0.00 | 0.00 | 0.00 | 71 | 1009.5 |
| 20260903230447 | 90 | 186 | 0.0 | 2.6 | 0.00 | 0.00 | 0.00 | 71 | 1009.5 |
| 20260903225949 | 90 | 169 | 0.9 | 4.3 | 0.00 | 0.00 | 0.00 | 71 | 1009.7 |
| 20260903225441 | 90 | 167 | 0.0 | 4.3 | 0.00 | 0.00 | 0.00 | 70 | 1009.7 |
| 20260903224929 | 90 | 94 | 0.0 | 1.7 | 0.00 | 0.00 | 0.00 | 70 | 1009.7 |
| 20260903224417 | 91 | 191 | 0.0 | 0.9 | 0.00 | 0.00 | 0.00 | 70 | 1009.7 |
| 20260903223906 | 91 | 173 | 0.0 | 4.3 | 0.00 | 0.00 | 0.00 | 69 | 1009.7 |
| 20260903223353 | 91 | 207 | 0.0 | 4.3 | 0.00 | 0.00 | 0.00 | 69 | 1009.7 |
| 20260903222846 | 91 | 179 | 0.0 | 0.9 | 0.00 | 0.00 | 0.00 | 69 | 1009.7 |
| 20260903222336 | 91 | 182 | 0.0 | 1.7 | 0.00 | 0.00 | 0.00 | 69 | 1009.7 |
| 20260903221834 | 91 | 215 | 0.0 | 1.7 | 0.00 | 0.00 | 0.00 | 68 | 1009.7 |
| 20260903221330 | 91 | 220 | 0.0 | 0.9 | 0.00 | 0.00 | 0.00 | 67 | 1009.6 |
| 20260903221311 | 92 | 275 | 0.0 | 0.9 | 0.00 | 0.00 | 0.00 | 67 | 1009.6 |
| 20260903220317 | 92 | 180 | 0.9 | 4.3 | 0.00 | 0.00 | 0.00 | 66 | 1009.6 |
| 20260903215806 | 92 | 235 | 1.7 | 4.3 | 0.00 | 0.00 | 0.00 | 65 | 1009.6 |
| 20260903215306 | 93 | 167 | 1.7 | 5.2 | 0.00 | 0.00 | 0.00 | 65 | 1009.6 |
| 20260903214753 | 93 | 119 | 1.7 | 5.2 | 0.00 | 0.00 | 0.00 | 65 | 1009.6 |
| 20260903214252 | 92 | 119 | 1.7 | 6.1 | 0.00 | 0.00 | 0.00 | 65 | 1009.7 |
| 20260903214007 | 93 | 201 | 1.7 | 6.1 | 0.00 | 0.00 | 0.00 | 64 | 1009.7 |